Theta_e
317 317 317 317 318 318 317 317 318 318 319 320 320 321 321 322 322 322 322 322 323 324 324 325 326 326 327 327 327 328 325 326 322 318 315 321 329 338 339 341 340 339 337 319 316 314 308 310 308 310 311 315 316 311 313 317 313 314 306 300 296 295 293 297 297 298 299 298 298 301 300 301 301 302 303 305 302 301 303 302 303 305 304 305 306 307 308 309
316 315 315 317 315 316 316 317 318 318 318 319 320 321 321 322 322 321 322 322 323 323 324 325 326 326 327 327 327 327 324 327 321 312 315 327 339 340 340 337 337 335 331 317 309 308 307 307 307 308 308 308 316 308 314 310 314 305 299 297 294 295 297 299 300 300 298 298 301 301 301 299 299 301 302 299 300 300 300 301 303 302 304 305 306 306 307 308
314 314 314 315 315 315 316 316 317 317 318 319 319 320 320 320 321 321 321 322 322 323 323 324 325 326 326 327 326 325 325 332 320 309 322 334 338 340 337 335 332 332 318 312 310 310 307 307 307 306 308 303 307 304 313 307 308 305 300 297 296 299 297 300 302 300 301 301 300 301 301 300 301 301 304 300 298 300 298 297 299 301 302 303 304 305 306 307
315 315 314 315 315 315 315 316 317 318 318 318 319 319 320 320 320 321 321 322 322 323 323 324 325 325 326 326 325 324 326 330 311 313 329 336 339 338 334 329 332 326 319 315 311 311 310 310 307 306 308 305 306 309 305 305 304 304 300 296 299 298 297 299 301 302 301 301 300 300 301 299 302 302 302 300 297 299 299 300 299 300 301 302 303 304 305 306
315 314 313 314 315 315 315 316 317 318 318 318 319 319 318 320 321 321 321 321 322 322 323 324 325 325 325 325 325 325 325 304 308 323 325 335 338 335 332 331 330 321 315 312 312 311 310 307 306 307 308 300 305 303 300 306 306 304 298 299 300 299 298 301 302 301 301 301 300 301 298 300 302 302 301 300 296 296 298 300 301 302 302 302 302 304 305 305
315 314 314 314 315 316 315 315 316 317 318 318 318 318 319 320 320 321 321 321 322 322 323 324 325 325 325 325 322 325 323 294 312 322 331 333 335 331 331 330 330 319 313 312 310 311 308 308 306 305 301 300 299 297 300 303 307 298 300 300 301 300 299 303 302 301 301 301 302 299 301 301 301 300 302 301 300 299 301 302 302 302 303 303 304 304 303 303
315 314 314 314 313 315 316 315 315 317 317 318 318 319 319 320 320 320 320 320 321 322 323 324 324 325 324 322 324 319 313 309 313 324 330 331 329 327 331 331 326 316 312 311 311 309 309 304 304 304 302 301 300 300 301 302 306 302 297 301 300 302 301 303 301 301 300 300 300 302 302 300 299 297 300 300 300 302 302 303 302 303 303 304 303 303 303 303
315 314 314 314 313 313 314 315 315 316 317 318 318 319 319 320 320 320 320 321 321 322 323 324 324 324 323 324 326 319 313 308 317 324 324 329 326 320 325 319 314 319 313 309 309 308 306 303 302 304 301 299 301 301 303 301 302 299 298 301 301 301 301 302 300 300 301 300 301 302 299 299 300 300 300 299 300 301 302 302 302 302 303 302 302 302 302 302
315 315 314 313 313 313 313 314 315 316 317 317 318 319 319 320 320 320 320 320 321 322 323 323 323 323 323 319 315 305 303 321 324 326 326 325 317 314 320 316 313 312 311 312 311 310 310 305 305 304 298 300 303 301 301 299 297 300 300 301 302 301 302 301 301 301 300 302 301 299 298 300 301 300 299 299 301 301 302 301 302 302 301 301 301 301 301 301
315 316 315 314 314 314 314 313 314 316 316 317 318 319 319 319 319 319 320 321 321 322 322 323 323 322 317 323 318 298 316 318 323 323 321 320 315 315 313 315 314 312 312 310 311 310 309 306 305 308 306 304 305 301 302 301 298 301 300 301 300 301 301 302 300 302 301 302 300 298 298 299 299 299 294 299 301 302 301 301 301 301 300 300 301 301 301 301
315 315 315 315 315 315 315 314 315 316 317 317 318 318 319 319 319 319 320 321 321 322 323 323 323 320 322 314 305 299 322 321 326 318 316 318 314 313 314 313 312 313 312 313 310 309 309 309 311 307 310 301 302 300 301 300 302 302 301 299 300 300 301 301 301 301 301 300 300 300 298 299 299 299 295 298 300 301 301 300 300 300 299 299 300 300 301 301
315 315 316 316 315 315 315 315 315 316 316 317 317 318 318 319 319 320 320 321 321 322 323 323 321 318 317 311 303 304 313 325 325 316 319 318 315 315 315 313 312 317 312 310 314 317 312 312 311 306 299 305 298 301 300 302 302 301 300 296 299 300 300 301 300 301 300 299 300 301 297 295 295 295 297 300 301 301 301 300 300 300 299 299 299 299 299 299
316 315 316 317 316 315 316 316 315 316 316 317 318 318 318 319 319 320 320 320 321 322 322 322 320 322 317 304 304 310 316 320 320 317 319 316 314 313 315 318 317 313 312 311 309 315 315 312 310 304 307 304 302 297 301 303 301 302 299 296 296 297 297 301 302 299 298 299 299 298 289 293 295 296 297 298 299 300 300 299 299 298 298 298 299 299 299 299
317 316 316 317 317 317 317 316 316 316 316 317 318 318 318 319 320 320 320 320 322 322 322 322 320 316 314 302 308 315 321 319 316 315 315 316 315 318 313 318 318 314 319 312 314 312 315 308 313 307 310 302 300 305 301 301 302 295 300 298 293 292 292 299 300 298 297 299 299 299 290 291 295 296 298 298 299 299 298 298 298 299 298 298 299 298 298 298
317 317 317 317 317 318 316 315 315 316 316 318 319 319 318 318 319 319 320 321 322 323 321 321 321 321 304 302 315 317 326 322 313 315 319 314 312 312 311 315 312 313 310 310 314 313 311 316 312 304 300 304 305 300 296 297 298 297 293 291 294 291 294 297 300 298 296 296 299 297 291 293 295 297 298 299 300 300 299 298 298 298 298 298 298 298 298 298
317 317 317 316 316 317 315 315 315 315 316 318 318 318 318 320 319 319 321 321 322 321 321 321 321 312 304 302 315 326 321 309 310 317 315 320 318 312 312 311 313 310 310 308 312 313 310 312 305 305 301 302 299 295 295 295 295 296 292 291 292 294 294 295 297 300 301 298 298 297 292 295 293 297 298 299 299 299 297 298 298 298 298 297 297 297 297 298
318 317 317 316 316 316 315 315 315 315 316 317 317 317 319 321 321 320 321 321 320 321 322 314 313 311 298 312 317 312 309 315 317 319 315 316 316 313 310 310 309 307 310 311 313 313 309 306 306 303 305 298 298 299 292 290 291 293 294 291 296 293 295 292 295 298 300 297 293 296 293 294 295 297 298 298 299 298 297 298 298 297 296 297 296 297 297 297
318 318 317 316 316 316 316 316 316 316 316 318 317 318 318 321 322 320 320 319 322 321 320 320 316 312 303 303 300 305 313 312 317 315 315 314 313 311 310 307 307 306 306 305 311 304 307 303 301 296 299 297 297 295 289 287 293 292 292 291 293 295 295 294 293 295 297 296 294 294 294 294 296 296 297 298 299 298 297 298 297 296 296 296 296 296 296 296
318 318 318 317 317 317 317 317 316 316 316 317 318 320 321 321 319 320 318 317 314 308 303 304 305 292 293 303 307 311 315 315 315 313 308 311 315 312 313 310 310 304 302 300 300 302 304 303 304 297 292 294 295 296 294 296 297 294 295 294 294 291 292 293 296 297 297 294 293 294 293 295 297 296 296 297 298 297 297 297 296 296 296 296 296 295 295 295
318 318 318 317 317 318 317 318 317 316 317 317 318 318 318 314 313 309 313 313 306 302 304 307 307 305 304 306 307 310 313 316 308 313 311 313 310 308 307 307 310 306 301 298 300 300 305 295 292 291 295 297 299 299 298 299 298 297 297 296 293 293 294 297 298 297 297 295 293 294 295 295 296 297 296 297 297 296 296 295 295 295 295 295 295 295 295 295
318 318 318 317 317 318 318 318 318 317 317 317 317 315 304 301 299 296 307 309 311 309 306 307 308 304 304 309 309 308 304 305 311 309 310 313 310 306 302 304 302 298 299 302 302 302 302 294 294 298 299 300 300 300 300 298 298 296 296 294 292 295 292 297 297 295 297 295 292 295 294 295 297 299 297 296 296 295 296 295 295 295 295 295 295 295 295 295
318 318 318 318 318 318 319 319 319 318 319 318 316 312 313 310 312 309 308 303 309 310 309 308 310 309 310 311 310 313 313 304 305 308 313 311 306 302 302 302 299 296 300 301 300 296 294 292 297 300 302 302 300 299 298 297 297 297 294 293 292 292 296 298 299 296 296 294 291 294 293 295 297 298 297 296 295 296 297 296 296 295 294 294 295 295 294 295
318 318 318 319 319 319 319 319 318 319 316 314 312 312 312 316 319 318 314 308 303 310 309 307 304 306 307 310 310 311 304 302 301 306 307 309 304 303 302 299 298 299 300 300 295 294 291 295 299 302 301 299 298 298 298 298 298 293 293 291 289 295 293 290 294 295 295 294 293 293 292 294 298 300 297 296 296 294 295 295 295 296 294 294 294 294 294 294
318 318 319 319 320 319 320 319 319 317 315 313 313 314 318 319 320 318 312 301 297 302 308 309 307 306 306 305 309 307 303 303 303 304 310 307 302 304 303 300 298 298 297 299 298 296 295 300 303 301 300 298 297 297 295 293 291 295 295 293 292 294 295 294 294 295 295 295 296 293 291 292 295 295 292 292 293 294 293 293 294 294 295 294 295 295 295 294
318 318 318 319 319 320 319 319 313 313 316 314 313 317 320 322 322 319 311 300 300 301 318 314 317 314 309 316 311 305 304 304 304 308 309 307 304 302 301 304 300 296 298 299 299 297 297 301 303 300 299 297 297 295 295 295 291 293 297 295 295 296 295 296 297 296 291 290 295 292 283 284 293 295 293 291 290 290 292 291 291 292 292 292 292 292 293 295
317 318 318 318 320 320 320 311 311 315 313 310 314 319 319 321 321 317 310 297 289 301 305 300 312 305 316 305 308 308 305 300 307 309 309 308 311 305 302 299 301 295 298 298 298 297 298 300 301 299 297 297 297 295 298 297 291 290 292 299 299 297 296 296 295 294 284 282 292 296 284 283 291 292 292 289 290 290 290 290 291 292 292 291 292 292 292 292
318 318 318 319 320 320 312 306 316 315 308 310 317 320 321 321 320 315 297 291 286 300 299 311 306 304 315 307 307 307 292 296 306 308 307 309 305 309 299 298 300 301 301 303 297 292 298 297 298 299 298 297 295 293 298 298 294 289 296 299 298 296 295 294 294 293 289 294 294 293 291 283 284 290 292 291 290 289 289 290 291 291 291 291 292 292 292 292
318 318 318 319 320 319 314 316 313 310 309 315 321 320 321 318 319 314 299 281 281 306 300 298 308 311 311 307 308 301 300 304 300 302 303 307 306 303 301 298 297 297 299 299 288 299 298 295 297 297 296 294 294 297 300 300 295 293 296 299 296 297 296 295 293 290 289 288 283 287 291 284 283 290 292 292 288 289 288 289 290 290 291 291 292 292 292 292
318 318 318 318 319 320 319 317 314 310 317 319 321 321 320 319 314 302 291 280 302 300 311 300 313 310 306 307 304 303 301 302 297 299 306 305 305 303 297 299 300 299 300 299 293 298 298 298 299 299 296 293 297 295 298 301 295 296 298 297 296 297 295 295 289 288 286 285 282 286 291 284 284 290 288 290 289 290 290 290 291 291 290 291 291 291 292 292
319 319 318 318 318 317 316 318 315 321 318 320 320 320 318 312 305 290 285 278 304 294 302 301 302 299 304 300 300 302 299 298 300 300 302 300 303 304 300 304 300 298 298 300 298 298 298 297 298 299 297 299 293 293 295 296 297 298 297 295 293 292 290 289 289 287 284 282 284 289 292 289 281 288 289 288 289 293 292 291 291 291 290 291 291 291 291 291
318 319 318 318 313 315 316 310 314 318 317 317 318 317 312 307 294 286 280 288 300 300 300 297 297 304 299 297 295 299 300 297 297 299 296 301 297 300 301 298 304 297 293 294 293 297 296 297 297 298 298 297 297 293 295 296 297 297 292 289 290 287 287 286 284 286 280 280 283 289 290 291 282 283 292 292 293 295 293 291 290 290 290 291 290 291 291 290
317 318 319 317 317 319 310 309 316 316 315 316 315 310 304 290 294 284 284 296 290 294 294 294 300 299 298 301 298 296 295 297 298 298 294 294 293 293 295 292 294 287 287 288 289 295 293 293 297 297 298 299 295 292 292 294 294 294 291 289 283 282 281 278 282 277 279 279 282 283 288 286 286 291 291 291 293 294 295 294 292 291 290 290 290 290 290 290
317 317 318 318 317 316 317 322 319 316 314 314 311 307 297 288 281 290 290 291 289 299 296 301 297 298 298 297 296 297 299 292 297 297 298 297 294 294 297 297 298 294 286 290 289 289 291 296 296 295 295 298 298 291 286 284 289 291 289 285 282 280 278 274 278 280 280 281 282 283 286 281 286 291 296 293 292 292 293 295 293 292 291 291 290 290 290 290
317 317 316 316 317 317 319 321 318 316 313 311 307 300 295 285 284 296 292 293 295 300 301 299 298 299 298 294 297 297 291 297 295 295 297 294 294 291 294 297 298 296 295 291 287 288 284 284 292 292 288 297 297 297 294 290 289 291 293 291 286 284 280 275 279 277 278 280 280 283 282 280 281 286 288 289 290 291 292 294 293 293 292 291 291 290 290 289
317 317 317 317 316 318 319 318 315 315 312 308 302 295 286 285 290 289 291 293 299 299 297 301 297 296 295 297 298 297 298 291 296 295 294 293 290 292 292 293 297 298 297 288 291 288 289 289 294 298 295 297 295 298 300 294 289 290 293 294 286 285 287 282 282 281 279 280 278 278 280 283 286 288 289 289 289 290 292 293 293 292 292 291 290 289 289 289
315 315 317 314 314 317 319 317 314 314 310 304 296 290 287 291 288 295 294 301 299 296 297 298 298 293 293 293 295 295 301 294 294 294 292 294 295 293 297 297 296 298 295 290 292 286 288 286 291 295 297 295 293 298 297 298 284 288 290 285 289 292 290 284 280 280 280 279 278 282 282 285 288 287 288 288 288 289 290 292 292 291 291 290 289 289 289 289
312 314 310 313 314 318 319 317 314 311 308 302 294 287 293 295 300 300 301 298 299 299 297 290 293 292 291 291 291 294 295 298 293 292 288 294 292 296 296 298 301 299 300 297 292 297 288 289 290 291 289 292 292 293 296 294 296 290 283 288 292 294 291 285 280 281 279 278 280 281 280 280 282 282 286 286 286 286 288 289 291 291 290 289 289 289 290 289
311 311 311 312 315 319 319 316 313 309 304 298 291 293 299 295 303 301 305 302 300 300 295 292 294 297 293 293 291 293 295 292 291 292 289 293 289 300 297 297 301 300 301 302 293 294 297 286 287 291 291 291 292 294 293 295 295 290 288 295 289 282 281 285 282 277 276 277 278 279 281 283 284 286 283 284 286 286 287 289 290 289 290 289 290 290 290 290
312 310 304 311 318 319 318 315 312 306 299 292 291 291 297 298 304 302 304 303 304 299 294 295 293 296 296 293 295 295 295 289 293 290 288 291 288 297 297 299 297 301 302 301 296 294 294 286 285 287 290 291 291 290 284 286 293 294 294 288 291 285 284 282 284 283 282 279 277 280 282 280 287 288 286 288 288 288 288 288 289 290 290 290 290 290 290 289
308 303 302 314 318 319 317 314 307 302 296 289 290 291 301 298 302 305 304 303 300 298 296 296 297 294 296 296 297 292 295 294 292 291 292 293 292 301 297 301 298 299 300 301 298 299 289 291 283 284 290 290 282 287 286 289 286 285 284 283 286 285 286 285 285 284 281 278 278 278 277 281 287 290 290 291 291 290 289 289 290 291 291 291 291 291 290 290
310 304 304 316 318 317 314 308 300 295 293 294 296 294 299 298 302 304 306 307 304 303 300 299 297 295 296 295 296 297 294 294 294 291 293 293 294 288 299 299 300 297 299 298 296 294 289 287 286 284 283 283 286 292 292 292 292 290 288 286 289 286 283 281 281 285 283 282 278 279 279 282 290 292 290 291 292 292 292 290 290 290 291 291 291 291 291 290
305 296 302 316 317 315 306 296 297 299 295 290 291 295 296 303 301 302 303 304 303 301 304 300 300 299 299 297 298 296 294 292 294 292 292 291 296 295 298 299 301 300 296 291 293 298 295 289 288 284 284 286 290 290 292 291 290 292 291 288 291 288 286 284 280 280 282 283 282 280 277 281 288 289 289 289 290 292 292 291 291 291 291 291 291 291 291 291
303 300 310 315 316 312 303 296 298 295 292 294 300 300 302 301 300 303 301 302 299 302 300 297 299 298 299 299 299 297 296 291 294 292 294 294 295 295 295 296 301 299 298 291 297 294 294 288 285 287 288 288 289 291 290 290 291 289 289 288 289 288 289 287 286 284 282 282 280 279 279 283 287 290 288 289 289 289 292 292 291 291 291 291 291 291 291 291
303 300 302 313 315 311 301 290 290 290 292 296 297 296 301 300 300 299 299 300 299 299 297 298 299 301 298 299 297 295 298 289 294 295 292 296 292 294 296 295 299 296 296 293 293 296 290 287 288 284 284 283 283 286 286 287 288 285 286 289 290 291 291 288 286 287 284 284 283 281 279 283 288 289 288 288 289 289 290 291 292 291 289 291 291 291 291 290
299 300 299 302 308 309 297 298 293 290 290 291 293 292 296 298 301 301 300 299 301 300 298 297 299 299 297 298 296 295 298 294 290 296 295 294 293 294 294 295 294 294 296 291 295 299 291 288 287 283 280 278 278 278 279 281 284 287 287 288 290 290 289 286 284 286 282 285 285 283 283 286 289 288 289 289 288 288 289 290 291 291 291 291 290 291 291 290
295 289 296 298 300 298 300 301 299 294 290 290 289 292 295 293 296 298 302 300 302 301 299 297 295 299 295 293 292 292 293 295 293 289 290 289 287 289 291 294 294 295 293 294 293 294 288 289 290 289 287 285 286 285 285 287 284 283 285 287 288 289 291 289 286 284 283 284 284 287 286 285 286 287 287 288 287 286 287 288 290 289 289 290 290 290 290 289
300 293 291 289 297 296 294 297 297 296 291 294 288 292 290 293 295 294 300 295 300 299 296 296 295 293 292 293 292 292 294 292 291 289 290 289 286 288 291 292 293 291 292 293 293 289 287 286 289 290 289 290 287 287 288 290 285 286 286 285 288 288 288 288 286 284 287 283 282 286 288 285 285 287 287 286 287 287 288 289 287 289 289 290 290 289 290 288
294 295 298 299 293 289 290 290 296 295 296 295 291 295 291 291 291 289 295 298 300 300 293 291 293 296 295 293 294 289 289 289 287 288 288 287 286 288 287 290 290 292 292 292 293 290 286 286 289 289 289 288 286 287 287 286 285 285 285 286 286 287 287 286 287 288 287 285 283 285 287 286 287 290 290 290 290 289 289 290 290 291 290 289 289 288 288 288
297 294 295 301 293 294 294 296 297 296 295 295 293 293 290 291 290 294 292 290 294 294 297 289 291 293 295 296 293 289 288 286 286 289 288 287 286 286 286 288 290 290 291 289 290 289 288 287 287 287 287 286 284 284 285 285 284 284 284 285 287 287 287 287 288 289 288 287 289 287 286 286 289 290 292 293 293 291 291 291 290 289 289 289 288 288 288 287
290 292 289 296 295 295 296 295 295 295 292 295 290 291 293 292 290 293 293 292 287 290 297 292 293 293 294 294 293 290 290 292 291 288 289 288 286 287 287 289 286 287 289 288 288 289 289 286 289 287 286 285 284 284 285 285 285 285 286 286 285 285 287 288 288 287 287 287 288 286 287 285 291 293 293 293 292 292 292 291 291 291 291 290 289 288 288 287
296 294 299 293 290 290 294 294 293 292 291 293 291 292 293 293 292 295 292 296 293 290 293 292 295 294 294 293 294 293 296 292 292 291 291 291 288 290 289 288 291 286 287 287 287 288 288 285 285 286 284 284 282 283 283 284 284 283 284 285 285 285 284 287 286 287 286 286 287 285 284 285 290 291 291 291 291 291 291 291 290 290 290 289 288 287 287 288
295 297 296 297 290 294 291 293 293 292 287 291 293 292 292 292 295 296 289 294 296 296 295 295 295 292 289 291 291 295 298 296 295 294 294 295 295 293 294 293 293 289 287 287 287 287 287 286 284 285 282 283 280 283 283 283 284 282 284 286 286 287 288 287 287 288 288 288 285 284 286 290 292 291 290 291 291 292 292 291 290 288 288 288 289 289 289 288
Wind_Speed
3 2 2 2 2 3 3 3 4 4 4 5 5 6 6 7 8 8 9 10 10 11 11 12 12 12 12 13 13 13 14 4 4 4 2 2 2 5 4 5 6 5 3 4 7 7 4 1 2 2 3 1 1 1 2 1 1 0 1 0 2 3 5 2 5 3 5 4 4 3 3 1 1 1 3 1 2 4 3 5 6 10 9 5 3 3 3 4
3 2 1 1 1 2 2 2 3 4 5 5 6 7 8 8 8 9 10 10 11 11 11 12 13 13 13 13 12 13 10 3 2 9 4 2 3 5 4 3 3 2 2 4 4 5 6 3 3 3 3 1 1 0 1 1 1 1 3 0 2 3 0 4 3 7 1 4 4 4 2 2 2 1 1 2 1 5 5 6 6 8 7 6 5 4 5 6
2 2 1 1 1 1 1 2 3 3 4 5 6 7 8 9 9 9 10 10 11 11 12 13 13 13 13 13 11 12 7 1 4 5 1 4 3 3 3 2 4 2 2 4 5 5 4 4 4 4 2 1 0 1 1 1 3 1 1 2 3 3 4 4 5 4 5 3 2 3 3 1 1 1 2 1 4 5 4 3 5 6 6 5 5 5 5 7
2 1 1 1 1 2 2 2 3 4 4 5 6 7 8 8 9 9 10 10 11 12 13 13 14 13 12 11 11 8 3 2 1 3 3 4 3 2 3 4 5 5 5 6 3 4 3 5 4 4 2 2 1 1 0 2 1 2 1 3 2 3 1 3 4 5 4 5 2 1 2 2 1 2 1 2 4 3 5 5 4 5 5 5 5 5 5 6
1 1 1 1 1 2 3 3 3 5 5 6 7 7 7 8 9 9 10 11 12 12 13 14 14 14 13 10 11 5 2 2 2 3 2 4 3 1 2 4 6 5 7 3 5 3 4 4 2 3 1 1 3 2 3 1 1 2 2 3 3 1 3 3 6 6 3 4 1 0 2 1 1 2 2 2 3 1 1 2 4 5 4 4 3 4 4 6
2 2 1 1 1 2 3 4 5 5 5 6 6 7 8 9 9 10 11 12 13 13 13 14 14 14 13 12 6 3 1 1 2 3 2 4 0 0 2 4 7 5 6 4 3 2 4 3 2 2 1 3 3 3 0 1 1 1 1 4 3 3 1 1 3 2 0 1 0 1 1 3 1 3 3 1 1 3 3 4 3 4 3 3 4 4 5 5
3 2 2 2 2 3 3 4 5 6 6 6 6 7 8 9 10 10 11 12 12 13 14 14 14 15 16 13 3 3 4 1 1 1 2 4 0 0 3 5 5 4 3 4 2 3 3 5 4 3 3 4 4 2 3 2 1 1 0 0 4 3 2 3 3 4 1 1 1 0 1 2 3 4 1 3 4 7 4 3 4 3 3 3 6 5 5 5
4 3 3 2 3 3 4 4 5 6 6 7 7 7 8 9 10 11 12 13 13 13 14 14 14 13 14 4 1 2 3 2 2 3 2 3 4 3 4 3 2 3 3 4 4 4 4 3 3 4 2 3 1 2 1 3 3 2 2 2 2 1 2 1 4 3 2 3 2 1 1 4 4 2 1 5 6 6 6 4 4 3 4 5 5 4 5 5
5 5 4 4 4 4 4 5 6 6 7 7 8 8 9 9 11 11 12 13 14 13 13 14 13 12 10 2 2 3 1 1 3 3 4 3 2 1 2 1 2 2 2 1 2 3 2 3 2 4 3 5 4 3 3 2 2 3 3 2 0 1 2 3 3 4 5 2 3 2 5 5 6 6 1 8 6 6 5 4 4 3 4 4 4 4 4 5
6 6 5 4 5 5 4 5 5 6 7 8 8 8 9 10 11 11 12 13 13 13 13 12 12 13 5 1 2 3 1 3 1 1 2 1 3 3 3 3 1 2 2 3 3 2 2 3 3 3 3 3 1 1 0 1 1 1 2 2 4 5 3 3 4 4 4 2 4 4 3 4 3 5 3 3 7 6 5 5 3 4 4 4 4 4 4 5
7 7 6 6 6 6 6 6 6 6 6 7 7 8 9 10 11 11 12 12 13 12 12 11 10 10 3 2 2 3 1 2 0 2 2 3 3 2 2 4 3 2 3 1 2 4 3 3 2 2 0 1 2 2 1 2 1 1 1 4 6 8 7 4 4 5 1 2 4 4 4 2 0 1 2 7 6 6 6 5 4 4 4 4 4 4 3 4
8 7 8 7 6 6 6 6 6 6 6 6 7 8 9 10 11 11 12 12 12 11 11 9 9 3 4 4 4 2 3 1 1 3 1 1 2 2 3 4 3 3 3 3 3 3 3 3 4 2 1 3 1 1 1 0 1 1 2 3 4 5 5 8 7 5 5 1 0 3 3 4 4 4 6 7 6 5 5 5 4 5 4 3 4 4 4 4
7 8 8 7 7 7 7 6 6 7 7 7 7 8 9 10 11 12 12 11 9 10 10 9 7 3 3 3 2 0 3 1 1 3 2 2 3 3 2 1 2 2 3 3 2 2 2 3 2 4 2 1 3 0 1 1 2 1 4 3 5 4 6 6 7 6 4 1 4 4 1 6 9 5 6 6 6 5 5 4 4 4 3 3 3 4 4 4
7 8 8 8 8 7 7 7 7 7 8 8 8 8 9 10 11 11 11 10 12 11 8 8 3 3 2 2 1 1 1 1 2 3 3 3 4 1 2 1 0 1 1 3 2 2 1 1 2 1 1 1 1 1 1 2 1 1 2 3 3 2 2 0 3 5 3 2 5 1 2 3 6 5 4 5 6 6 5 5 4 4 4 3 3 4 4 5
8 7 8 7 8 9 4 3 7 8 8 8 8 9 9 10 11 10 10 9 8 7 9 8 3 2 3 1 1 2 4 5 4 4 3 3 4 3 2 2 3 2 3 3 1 1 1 1 1 1 1 0 1 1 2 3 3 3 1 3 2 3 0 3 5 8 5 1 4 3 2 5 6 5 5 4 5 5 5 5 5 4 4 5 4 4 5 5
9 9 8 7 9 6 3 2 5 9 8 9 9 8 9 10 10 9 9 8 11 10 5 2 3 2 4 5 1 1 1 3 3 5 2 2 2 1 4 3 3 3 3 2 0 0 1 1 1 1 2 0 2 2 3 3 2 4 5 3 4 4 2 1 3 3 3 4 3 6 3 4 1 5 5 5 6 5 4 6 4 5 5 4 4 4 5 5
10 9 9 8 8 9 5 5 7 8 9 8 9 10 11 10 10 10 10 9 6 4 2 2 0 4 4 1 2 3 4 2 1 2 1 1 1 4 4 4 2 3 2 2 1 2 1 2 1 1 2 3 2 3 1 3 3 4 4 3 3 3 1 2 1 2 1 3 3 5 5 5 2 8 6 6 7 7 6 5 6 5 4 4 4 4 4 4
11 10 10 9 8 9 7 7 8 8 8 8 9 9 9 9 10 10 7 4 4 2 4 3 2 1 5 4 3 2 5 5 2 4 3 1 2 2 3 2 4 4 3 3 1 2 2 1 2 2 1 3 3 3 4 4 4 1 3 3 5 4 6 4 2 4 4 4 3 4 8 8 4 7 8 8 6 6 5 6 6 5 5 4 4 4 4 4
11 10 9 10 9 10 8 8 8 8 8 7 9 12 13 11 5 4 3 3 3 1 1 4 4 5 2 6 4 6 3 3 5 4 2 3 2 2 0 2 3 5 3 2 2 3 1 1 1 1 3 5 6 7 7 6 4 5 4 2 3 3 3 2 2 4 5 4 4 5 6 6 5 6 4 6 6 6 5 5 5 5 5 4 4 4 4 5
10 10 11 11 11 9 9 9 9 8 8 7 5 4 2 1 1 2 4 6 7 7 2 6 10 2 5 7 4 2 4 3 3 2 5 3 3 4 3 3 2 2 1 2 4 3 4 3 4 5 6 7 6 8 9 8 7 2 0 2 4 4 5 5 4 3 1 2 4 5 5 7 7 5 11 8 6 5 4 6 5 5 5 5 5 4 4 5
11 11 11 11 10 9 11 11 8 7 7 5 7 3 3 3 3 3 5 8 11 10 11 4 10 8 4 7 5 8 6 1 1 3 4 3 3 7 4 3 3 3 4 4 4 1 3 4 6 7 8 7 6 4 10 8 6 4 2 2 4 3 6 4 2 3 2 1 2 3 6 7 9 7 4 7 8 8 8 7 7 6 5 5 5 5 4 5
12 11 11 11 10 11 11 10 8 7 4 5 4 5 2 2 1 1 1 3 7 15 12 12 3 0 2 5 7 4 2 4 2 5 1 2 5 6 5 5 6 5 5 4 4 1 4 9 8 9 7 7 1 2 4 2 1 2 1 2 3 4 5 6 4 5 2 4 5 5 8 8 6 6 2 11 10 5 3 3 6 7 6 5 5 5 6 6
12 12 11 11 11 11 12 10 8 6 4 3 4 5 3 2 1 1 1 3 6 7 11 11 11 9 4 5 4 1 4 6 6 8 6 3 5 5 7 6 6 6 4 8 5 3 5 5 12 9 7 4 1 3 0 1 1 2 3 3 5 2 3 3 3 1 3 1 2 4 9 10 11 13 6 4 4 3 4 6 6 3 6 6 6 5 6 6
13 12 12 12 11 13 12 10 6 4 6 7 6 5 3 1 2 3 1 2 4 4 10 11 13 10 11 8 6 6 7 3 5 10 6 6 9 4 3 8 7 6 7 8 10 8 10 3 1 8 7 4 4 3 3 2 5 4 6 4 4 4 5 5 3 3 4 4 3 5 8 9 11 12 2 1 4 4 3 3 3 2 4 5 5 5 5 7
13 13 13 11 11 10 12 6 4 5 5 7 10 7 5 1 1 2 1 2 4 5 4 4 3 4 6 4 9 7 5 4 6 5 10 10 7 3 5 4 3 7 7 7 9 10 11 7 2 4 5 4 4 4 5 4 5 3 5 11 8 6 6 5 5 6 4 4 4 4 4 4 3 10 11 5 2 3 4 4 4 4 3 3 4 4 3 5
14 14 14 12 10 12 11 4 4 6 7 8 3 3 6 3 3 0 0 2 7 2 3 7 5 6 6 5 6 4 5 7 2 5 11 6 0 3 2 5 4 7 7 7 9 5 3 1 6 5 4 4 4 4 4 7 5 1 2 2 3 6 2 2 5 1 3 3 1 1 3 7 3 4 6 4 5 4 4 5 5 6 5 5 5 6 4 4
15 15 15 13 13 13 8 5 6 7 6 7 7 3 1 2 1 2 1 1 8 6 9 1 4 2 2 11 9 6 2 5 3 9 4 4 4 1 5 5 3 1 2 0 1 5 5 2 2 2 4 5 4 5 3 3 2 3 1 2 4 3 1 2 2 4 5 3 1 1 3 5 9 5 3 5 6 6 5 6 6 7 6 6 6 6 6 6
17 16 16 14 15 15 4 1 8 9 5 1 1 7 3 2 1 0 1 1 6 6 4 3 1 3 1 10 11 9 1 11 5 4 5 1 2 2 1 7 8 6 3 2 10 2 4 5 5 4 4 5 7 5 3 7 5 1 1 3 2 2 0 1 3 4 3 1 6 5 4 2 6 2 6 8 5 6 9 8 9 8 7 7 6 7 7 7
18 18 18 16 15 16 11 5 4 8 3 1 3 4 4 3 1 1 2 4 1 2 4 6 4 1 6 8 10 6 4 3 1 3 2 3 4 1 5 7 3 4 9 9 9 2 2 0 4 7 5 6 2 4 3 6 7 1 1 4 3 1 1 1 2 2 3 3 8 5 6 6 10 4 2 3 3 8 9 11 9 8 9 7 8 6 7 6
19 19 18 16 10 11 9 7 6 1 4 4 3 3 4 2 2 2 4 8 2 4 2 2 3 10 9 12 8 6 4 2 3 2 2 2 2 1 2 1 1 2 3 6 9 0 2 4 2 0 3 1 4 3 4 5 4 5 4 3 2 1 1 1 0 0 2 8 9 8 9 7 7 3 9 8 7 8 4 5 6 8 7 7 6 8 6 6
20 19 18 17 13 6 4 7 9 2 3 4 4 5 4 0 3 5 7 7 4 1 2 4 4 10 13 13 9 4 3 5 4 6 4 2 1 2 1 2 1 1 1 2 4 2 2 2 1 0 4 4 4 3 4 2 1 4 2 2 1 1 2 0 1 0 2 8 3 12 12 11 10 3 1 2 3 3 12 12 12 12 11 10 8 8 7 6
21 21 20 15 8 6 13 9 9 5 4 6 5 5 6 5 4 8 9 7 3 5 11 6 5 10 13 9 8 12 11 6 7 7 8 7 7 9 10 10 7 4 5 6 7 2 7 6 2 3 4 7 2 5 2 2 1 2 4 3 6 1 2 2 2 3 7 8 0 1 2 5 15 7 1 3 3 4 6 10 14 14 12 10 9 10 8 7
22 22 23 16 12 9 10 1 9 7 7 5 4 1 5 7 12 12 10 8 3 4 2 8 11 12 13 10 7 7 4 6 7 6 6 3 7 7 6 6 6 6 3 6 7 3 4 4 8 4 3 5 7 7 3 0 5 6 7 7 5 3 4 4 3 3 4 1 2 0 1 3 2 5 11 3 3 3 2 8 10 13 14 12 11 9 9 8
23 20 14 15 14 11 9 6 8 12 10 7 6 4 2 7 13 15 18 13 3 2 7 4 9 7 12 9 7 12 4 2 10 6 8 5 6 7 7 10 8 9 0 1 6 7 3 3 7 8 5 7 11 13 10 5 8 10 5 9 8 7 2 3 5 7 4 1 0 3 3 6 5 5 2 3 3 3 4 8 8 9 10 10 10 9 9 8
23 19 15 10 12 12 10 8 9 12 8 8 8 12 15 14 10 15 15 12 2 3 3 8 10 9 9 5 4 8 2 3 7 7 7 9 9 8 11 12 14 7 3 1 4 3 12 6 1 9 1 10 12 4 2 5 2 5 5 2 3 8 1 6 1 0 1 0 1 1 5 2 4 0 2 3 4 3 3 10 11 11 10 11 10 11 10 9
17 12 13 9 14 15 14 9 11 13 12 9 10 13 17 16 14 9 5 6 3 4 9 6 5 7 7 5 1 10 2 4 7 4 4 8 4 7 8 4 11 16 11 12 4 4 2 5 1 2 1 6 3 1 4 5 5 5 5 7 8 1 1 1 1 1 1 3 8 4 4 6 1 1 2 2 4 2 1 8 10 11 12 11 10 10 10 10
10 11 10 16 15 14 15 11 11 10 9 13 14 14 14 10 5 3 4 11 9 11 10 9 8 8 8 8 5 9 4 4 6 6 5 4 5 10 7 8 11 14 14 8 3 2 5 2 2 3 2 1 0 2 1 3 0 6 3 6 2 2 3 2 3 0 2 6 5 7 8 3 3 8 2 3 4 3 4 5 10 11 11 12 10 11 11 11
12 8 14 15 17 15 16 14 16 11 9 11 16 17 4 11 6 6 3 8 8 14 8 11 3 11 7 9 8 10 6 8 10 6 4 11 5 8 11 6 11 14 18 10 4 1 1 3 2 2 3 1 3 1 2 1 2 1 3 1 7 3 3 3 1 6 3 7 4 3 6 7 12 8 3 6 8 9 9 6 9 12 12 12 11 10 10 9
9 8 6 18 13 17 14 17 15 13 13 11 8 16 11 11 3 6 2 5 5 10 12 11 8 6 8 8 6 10 14 9 10 9 5 6 6 8 15 10 8 15 13 11 6 3 1 4 1 2 2 1 1 2 7 5 1 1 2 2 0 1 1 6 7 1 2 7 2 7 7 8 7 6 14 12 14 12 11 10 12 13 13 12 12 12 13 12
8 4 11 11 19 18 17 15 13 13 11 17 12 14 2 8 8 2 1 2 3 8 9 9 11 6 11 9 11 9 10 10 14 10 8 5 7 3 11 12 5 9 13 14 8 4 2 1 4 1 4 4 1 4 9 13 12 4 1 2 0 1 1 1 3 5 4 3 5 5 6 3 1 3 7 12 12 14 17 17 11 11 11 11 11 13 12 12
7 5 3 15 20 17 17 12 11 15 15 10 8 8 8 9 8 5 1 1 1 4 2 2 6 13 7 7 9 10 6 10 8 8 8 5 10 1 5 11 7 7 5 5 6 2 1 2 7 3 1 5 4 5 7 5 9 11 13 12 13 9 4 4 9 1 3 3 4 1 12 1 1 1 5 2 9 12 13 13 12 9 10 10 10 10 11 11
7 7 6 15 22 23 17 15 8 9 8 13 18 13 6 2 2 9 6 0 2 0 1 1 1 1 3 7 7 6 8 8 9 7 6 8 6 5 2 2 8 11 12 9 12 7 5 2 2 5 6 7 3 0 1 3 3 0 4 5 6 5 3 5 9 2 1 5 2 1 3 5 2 2 4 4 3 6 8 8 9 9 9 9 9 9 9 10
8 9 2 20 22 25 17 14 11 10 10 11 1 1 2 2 7 2 8 6 6 3 1 1 2 1 2 0 3 6 10 5 10 10 5 8 2 1 3 5 8 11 7 1 4 1 8 2 2 3 3 0 0 3 2 2 1 2 3 1 5 13 12 10 5 2 5 1 1 2 6 4 2 3 3 4 3 4 6 9 8 6 6 7 9 10 11 9
3 2 3 12 24 18 18 12 11 12 12 4 9 11 5 6 7 7 9 9 9 5 7 2 2 1 1 2 1 2 9 3 6 7 4 5 3 1 5 3 1 9 8 6 7 7 4 3 4 3 2 0 1 1 1 2 1 4 5 9 7 2 6 5 1 1 3 8 6 6 15 1 1 1 2 0 3 4 5 5 9 9 7 8 8 8 8 8
2 1 1 3 4 17 18 11 15 14 14 13 14 17 11 7 7 12 9 9 7 6 3 7 4 3 1 2 1 2 1 3 1 2 2 0 2 2 4 5 5 1 4 1 1 5 5 5 9 9 13 11 8 8 8 8 11 4 3 4 9 13 9 6 8 9 11 7 10 7 9 1 1 1 2 1 3 4 2 4 5 6 9 9 7 8 9 10
3 3 1 2 2 5 4 3 13 14 14 13 11 15 16 11 1 1 8 7 9 3 2 2 4 3 3 2 2 3 5 1 2 1 3 2 1 2 2 3 3 2 2 4 2 2 3 2 10 14 14 13 12 1 2 3 5 8 10 15 15 13 13 9 5 6 15 4 9 14 7 2 3 4 4 5 4 6 7 4 8 7 5 6 6 7 7 7
1 7 5 6 4 5 2 2 9 13 16 18 12 9 16 19 6 1 6 8 8 8 2 1 3 7 6 9 11 9 7 3 1 0 4 3 2 1 2 1 3 4 2 1 2 3 2 3 12 14 14 15 2 3 0 1 6 10 12 14 15 15 15 15 14 18 8 5 15 5 6 8 7 7 6 7 5 6 5 6 6 6 6 9 8 6 7 7
10 3 8 6 10 10 10 9 8 15 13 17 11 8 16 17 11 9 3 5 3 9 8 2 4 15 15 16 13 7 4 5 3 8 3 1 4 0 1 2 1 2 2 1 1 3 5 9 10 8 15 4 1 0 1 1 1 1 4 9 14 16 14 19 20 15 9 13 14 4 11 9 7 9 8 8 8 9 11 10 9 8 7 6 7 8 9 9
0 2 1 1 7 2 15 12 14 15 17 18 11 11 11 17 19 16 9 7 7 8 16 12 17 18 14 11 10 9 7 4 11 10 5 6 6 4 2 1 2 3 2 1 2 1 2 7 2 3 8 3 1 1 2 1 1 3 4 4 10 16 20 22 21 16 11 6 1 2 3 5 2 5 7 7 7 5 5 7 7 7 8 7 7 7 8 8
6 5 2 1 3 1 8 5 5 10 13 17 13 16 16 20 22 11 5 12 9 12 9 17 19 15 13 11 11 11 16 20 16 9 5 7 2 3 6 5 4 2 1 4 3 2 5 4 8 3 4 7 2 1 0 1 2 4 5 5 4 4 9 12 13 7 5 10 8 2 1 4 2 3 3 3 6 4 6 6 6 5 7 7 8 8 7 8
2 2 1 7 6 3 3 8 8 10 8 9 13 10 10 15 20 18 11 8 16 11 15 24 27 10 10 12 13 18 17 11 8 8 10 14 14 9 8 4 9 7 4 3 2 2 5 4 3 4 8 8 1 3 1 1 1 4 10 11 7 4 7 12 12 8 10 14 5 2 6 6 1 5 4 4 5 5 5 4 5 5 6 7 8 8 8 9
1 1 1 1 7 8 8 6 10 8 11 9 13 18 13 22 15 14 6 5 11 11 14 20 8 8 4 11 17 23 13 5 5 2 8 3 3 4 3 4 11 12 9 9 3 7 8 6 7 6 10 7 0 3 4 4 2 9 22 19 9 8 6 2 2 6 8 4 3 8 11 4 2 2 3 1 4 3 4 5 5 6 6 8 9 9 9 8
Wind_Direction
126 118 94 84 56 41 30 18 9 8 4 12 12 5 2 3 357 357 354 349 346 343 337 333 335 335 336 337 338 331 329 324 286 261 125 82 310 315 307 276 291 301 335 317 284 258 290 191 336 360 269 189 354 346 283 303 353 257 245 274 291 89 65 340 32 63 173 114 145 99 6 354 126 138 94 249 214 236 265 93 90 75 73 90 93 58 61 54
137 131 112 50 42 34 43 19 22 3 2 355 7 356 358 356 359 353 350 345 344 339 335 334 333 335 336 336 336 330 330 302 279 68 40 344 336 341 323 315 316 335 310 273 342 354 329 10 11 318 267 148 261 21 305 335 339 6 310 322 72 24 90 16 59 38 6 81 79 100 48 14 59 336 73 339 292 178 248 117 113 100 107 94 66 45 52 49
139 139 161 20 6 7 6 6 359 0 357 358 1 353 350 352 351 350 344 343 340 337 335 333 335 333 331 335 334 325 321 290 243 82 72 11 349 340 347 315 309 345 276 327 336 324 354 339 314 313 306 38 338 51 270 352 346 55 62 351 60 74 76 47 51 80 40 9 85 74 83 12 51 351 28 310 313 304 17 101 133 116 94 72 59 43 41 46
151 166 144 288 339 344 346 356 352 348 359 2 352 353 349 346 344 345 342 339 338 338 335 333 331 331 330 329 331 315 276 283 236 118 79 348 355 5 337 336 319 293 269 267 318 306 333 279 282 299 345 239 132 210 270 5 351 345 324 31 67 349 90 51 67 71 56 18 30 5 54 264 44 66 12 300 317 48 94 42 27 65 73 68 70 54 39 47
163 199 231 243 322 329 335 343 345 350 352 354 352 347 346 342 341 340 338 338 336 335 334 330 330 327 327 325 317 289 320 267 109 75 357 331 333 20 340 315 303 293 280 294 270 260 282 314 332 298 253 289 137 162 46 68 77 315 41 94 65 327 77 71 72 40 71 51 327 27 274 20 9 255 209 226 249 105 46 26 50 56 55 63 51 62 53 51
210 215 225 268 303 320 329 331 344 342 344 347 347 346 341 342 343 338 337 338 335 332 329 330 329 328 324 319 313 253 281 357 186 151 321 323 235 343 306 288 280 278 284 287 318 312 291 257 308 260 330 325 51 22 115 48 318 345 64 58 38 60 32 111 105 78 304 130 275 282 47 350 319 302 262 96 37 128 73 80 74 76 65 93 74 57 60 53
233 263 253 292 296 322 328 334 332 337 331 339 343 343 341 339 336 338 334 334 331 328 328 330 330 329 328 309 218 239 258 100 97 217 212 309 205 250 274 273 261 289 292 286 302 324 33 308 281 46 316 272 77 36 53 355 320 244 138 38 73 9 349 101 99 143 165 55 263 25 352 296 306 276 29 97 111 105 105 102 103 87 94 66 68 67 71 61
247 262 282 294 300 307 323 327 327 326 330 334 336 338 337 334 334 332 333 329 328 325 326 328 329 330 345 331 231 229 239 127 76 170 173 271 222 195 254 258 280 313 301 13 340 336 3 300 347 357 275 359 60 311 122 305 213 304 66 27 92 328 251 136 138 176 197 230 258 306 254 244 214 241 144 116 126 128 123 125 98 120 91 70 70 70 71 68
260 262 273 296 295 300 306 316 325 325 326 331 330 330 333 334 331 331 327 326 323 322 324 326 326 334 314 273 257 302 219 75 23 99 178 194 133 230 298 230 209 283 334 260 13 320 331 24 5 42 14 336 33 326 70 25 74 354 50 292 65 240 228 199 192 198 191 218 185 216 244 253 245 72 288 122 120 123 124 104 131 113 90 84 84 71 66 67
256 260 262 277 280 291 300 311 313 320 323 326 326 327 330 331 328 325 324 321 318 319 320 322 328 327 320 233 281 257 111 284 135 104 69 143 167 213 235 350 310 293 292 62 282 286 7 28 12 324 21 269 344 1 291 300 105 283 350 323 284 272 281 199 222 238 194 197 158 198 236 262 110 113 226 107 129 132 129 121 118 111 96 90 86 67 59 67
243 252 260 265 275 285 291 301 300 305 317 319 320 322 325 324 323 321 319 318 316 314 319 322 331 335 310 274 273 252 218 245 88 115 120 288 191 206 39 35 9 319 315 116 339 20 8 333 21 322 178 39 293 101 333 77 293 297 13 289 264 249 240 245 219 236 119 224 198 214 251 112 49 102 239 142 142 154 135 134 131 115 110 108 91 90 61 66
236 243 248 253 267 277 283 288 286 297 307 312 312 316 318 320 317 318 317 315 311 315 323 329 336 311 287 287 240 257 230 29 193 139 172 248 70 62 45 32 351 10 336 326 106 38 25 353 321 310 33 341 65 174 85 327 301 347 274 307 292 289 244 198 206 198 152 233 205 158 268 230 167 221 125 136 153 160 140 137 137 126 123 100 101 86 69 67
240 243 248 254 255 264 270 276 290 296 300 305 306 312 316 316 314 315 315 312 311 315 321 325 329 266 306 253 208 345 275 156 142 145 119 97 103 83 87 42 350 10 16 338 60 35 15 339 351 308 25 329 315 15 149 261 216 284 245 224 301 267 251 214 162 114 151 139 157 99 311 248 192 128 132 131 156 160 142 152 148 134 120 120 114 107 91 51
219 238 247 256 264 274 268 271 291 291 292 293 304 312 314 312 311 313 312 308 305 300 311 321 327 273 269 261 91 270 5 330 161 180 140 174 131 84 129 153 18 54 331 71 35 359 27 341 306 310 70 358 340 259 264 185 199 250 324 143 237 341 238 354 120 157 158 147 170 167 209 323 125 122 140 165 152 171 170 157 154 137 132 129 114 119 107 98
213 219 241 255 265 276 251 280 288 290 287 288 299 317 312 307 309 306 304 308 296 304 304 301 234 275 215 195 30 110 290 291 221 159 148 194 131 138 116 141 91 60 45 69 79 330 293 347 317 239 127 28 196 188 263 251 194 217 327 258 189 193 153 195 134 166 164 243 241 153 284 251 160 158 155 174 164 186 184 156 146 144 143 140 152 134 124 116
219 213 217 240 259 260 238 285 292 284 285 289 296 307 295 295 302 294 291 290 291 291 280 267 173 273 324 253 117 143 233 205 170 99 71 332 168 145 134 108 135 140 147 55 42 231 286 217 283 334 113 160 240 225 281 313 271 196 178 286 299 226 181 120 216 208 335 127 199 182 239 77 149 156 168 171 182 191 204 154 152 147 146 148 136 133 128 130
222 221 223 226 251 255 256 246 253 270 283 290 292 281 280 275 274 289 290 288 288 212 246 331 204 151 266 65 118 219 189 104 21 112 64 344 2 117 129 138 143 122 90 115 192 241 120 249 125 8 253 243 222 208 242 260 283 245 166 223 250 241 270 242 41 275 199 217 185 223 237 256 124 164 173 184 191 191 202 169 158 152 159 133 129 141 143 131
210 220 222 224 240 254 244 239 237 248 270 290 286 286 291 299 301 307 270 246 239 242 249 223 261 293 231 100 220 170 71 112 170 122 120 75 304 189 164 175 112 143 151 132 90 232 149 197 103 246 176 195 241 215 149 216 197 259 131 225 262 249 218 228 210 181 185 206 274 200 220 251 204 180 176 188 196 193 210 166 157 158 146 146 157 135 127 111
209 210 208 216 226 240 235 237 238 243 258 272 274 278 281 284 285 251 274 163 177 118 208 183 180 181 275 177 91 91 61 89 88 135 141 173 235 210 200 87 193 142 176 210 169 208 139 259 112 288 248 201 208 207 206 229 288 297 344 1 348 344 327 297 54 170 176 181 225 247 248 254 265 169 181 187 197 200 204 133 147 151 150 154 148 138 130 114
206 203 204 215 222 227 225 229 236 241 247 265 263 246 238 200 173 180 210 215 234 210 305 153 204 60 101 136 109 33 173 217 124 235 139 181 155 149 169 191 155 243 176 195 139 218 134 181 190 199 219 227 212 212 228 241 264 319 59 258 264 292 284 291 299 140 47 8 241 239 258 266 262 243 189 179 187 201 193 153 164 164 160 159 151 140 131 113
201 205 207 213 220 217 220 227 235 244 249 262 277 254 211 214 183 217 162 223 223 245 261 232 193 236 302 109 134 163 129 196 289 136 161 173 183 156 165 186 157 205 224 220 150 359 22 221 225 221 231 233 252 229 212 234 262 274 289 304 296 271 270 272 272 196 97 176 262 308 295 274 273 274 190 172 164 204 193 180 174 171 160 147 144 135 136 111
198 197 207 213 216 216 220 223 233 244 266 264 263 222 347 54 304 173 269 241 207 225 236 247 283 151 174 151 185 219 263 121 182 149 102 197 174 192 155 197 180 207 181 208 75 60 218 224 228 232 240 258 97 59 24 354 327 321 276 270 279 248 272 273 265 132 122 114 261 245 253 265 263 264 152 176 182 193 185 180 173 159 150 145 147 149 129 132
193 199 207 210 215 211 214 214 229 226 225 225 220 231 276 48 330 293 264 259 281 199 216 225 229 229 186 134 158 313 189 184 174 172 175 205 147 241 154 192 197 220 214 177 183 174 247 239 231 236 241 214 162 75 309 308 274 255 264 245 234 257 261 289 57 154 174 209 288 327 297 275 270 258 223 181 162 78 68 63 46 86 150 156 158 154 147 144
194 197 204 208 204 209 208 209 218 212 228 227 243 221 99 171 25 319 207 273 308 220 197 202 212 206 204 164 170 178 199 202 209 182 160 175 169 184 209 188 210 205 221 194 204 215 225 242 181 191 215 185 213 186 185 198 252 213 211 233 257 239 232 202 249 184 153 230 238 282 283 278 247 243 149 58 68 107 100 71 102 35 50 74 77 113 147 147
192 194 205 205 198 188 202 182 216 229 207 227 245 258 283 348 19 343 344 289 229 241 22 204 169 232 196 40 135 179 202 257 237 135 171 180 160 141 222 182 216 226 219 201 215 238 251 246 119 222 173 167 206 240 199 171 245 255 209 199 220 246 272 300 332 354 356 315 211 165 324 283 235 210 190 148 133 185 169 166 188 171 140 144 139 124 72 112
192 192 205 201 183 189 164 176 206 207 216 219 222 219 237 230 252 270 347 242 278 179 35 215 116 230 108 154 136 175 97 224 223 152 161 206 275 182 116 218 175 223 222 221 220 232 259 109 157 178 153 174 206 212 201 154 219 223 266 357 231 219 225 340 294 353 293 243 316 104 172 273 354 335 164 156 177 191 148 195 193 175 173 177 174 149 149 138
190 192 202 195 188 175 167 225 155 179 208 246 210 205 171 114 70 355 118 282 283 171 167 16 168 278 12 162 150 124 189 200 93 108 141 10 174 359 197 189 167 289 6 329 52 259 117 146 73 117 164 169 206 217 223 204 200 245 312 354 52 53 84 225 250 206 246 325 263 133 172 263 292 248 133 162 172 184 187 210 196 177 173 183 169 158 159 156
191 191 199 198 195 190 236 160 158 182 204 33 260 145 124 99 129 258 137 21 266 118 147 226 226 321 344 159 165 163 22 119 125 189 14 30 7 69 270 200 186 180 207 157 222 7 137 179 147 187 195 195 212 222 190 188 205 162 270 71 66 66 281 329 213 245 244 359 263 171 220 307 251 275 138 157 175 205 213 198 200 177 175 177 159 157 157 151
191 191 196 200 200 201 233 292 189 191 150 99 56 130 112 117 215 164 145 225 134 130 336 118 288 115 111 161 187 137 146 358 356 56 272 32 3 166 197 237 239 194 196 205 232 180 357 210 193 187 177 219 162 28 359 158 206 145 127 65 74 100 59 237 279 257 291 252 242 188 185 224 276 185 163 198 249 230 214 191 187 177 170 170 155 147 145 138
193 191 190 190 185 203 223 245 267 8 116 111 113 110 138 138 168 187 91 250 123 217 88 84 199 170 155 159 193 155 149 65 46 158 151 158 177 315 4 318 5 291 262 218 231 276 146 165 181 183 217 144 101 46 31 53 90 150 123 91 78 90 202 15 352 143 360 250 238 200 208 181 287 204 191 169 212 214 151 146 162 159 158 156 148 147 145 141
195 190 187 179 193 180 161 214 220 151 123 113 120 159 144 233 191 168 210 220 355 107 88 146 128 142 161 152 172 172 180 121 142 143 130 155 108 341 200 53 314 17 343 339 286 152 134 62 328 236 87 101 109 65 21 358 111 130 129 128 128 323 41 324 278 209 213 265 213 194 209 195 224 292 100 192 333 163 154 167 168 167 166 160 151 151 144 141
193 192 186 184 189 153 195 199 180 132 124 116 129 159 178 143 304 203 221 73 255 182 154 163 149 163 174 170 164 172 173 151 154 174 158 179 162 175 197 190 155 169 249 205 240 151 237 197 138 82 270 138 167 91 14 44 35 142 131 130 124 231 65 266 145 224 209 243 266 358 212 211 236 241 167 198 156 128 157 164 169 164 160 153 149 150 148 145
193 194 189 190 182 205 210 194 145 139 128 138 143 181 186 170 207 209 234 140 244 114 187 135 164 173 174 169 192 155 140 167 160 185 124 174 163 221 217 213 186 177 191 181 212 146 277 180 177 170 18 223 156 169 163 22 219 167 168 160 132 202 214 244 198 222 267 261 292 318 293 273 320 241 252 186 56 31 52 150 153 156 158 152 150 148 146 146
194 191 192 195 195 204 196 182 157 150 148 136 166 121 18 201 223 207 214 209 196 342 114 143 152 161 171 181 174 155 162 228 153 181 159 160 182 195 205 229 206 223 170 122 182 173 237 321 220 137 233 175 198 206 187 164 162 200 179 167 185 173 184 245 183 214 216 205 302 290 101 234 119 243 27 69 0 28 359 116 129 135 136 138 140 138 138 145
193 193 197 189 201 206 205 166 164 144 138 160 175 179 181 212 226 209 215 208 124 131 126 140 151 153 186 220 115 178 139 157 171 158 182 165 202 200 189 200 209 203 156 176 207 143 213 232 316 164 337 155 199 204 125 128 128 201 194 194 233 225 126 212 168 35 18 309 233 274 202 220 197 27 63 78 55 21 21 116 124 132 134 139 145 150 155 155
189 198 188 193 197 198 191 168 157 149 154 184 186 189 202 191 211 195 241 174 159 161 143 136 154 168 183 179 74 185 35 110 179 142 218 213 215 205 209 180 190 193 179 192 155 187 135 231 41 360 25 162 196 152 191 140 183 207 144 214 199 55 97 324 7 48 51 9 253 148 287 295 5 292 173 159 105 81 290 134 136 142 146 147 156 160 161 160
195 189 190 201 203 183 179 164 152 146 167 190 195 209 208 222 214 149 192 195 175 134 150 166 198 174 178 193 171 185 196 106 170 157 205 159 264 224 203 212 178 194 216 173 245 201 155 192 317 103 221 344 127 312 4 54 118 104 196 221 72 52 79 135 244 33 180 243 266 152 196 246 128 261 155 144 163 162 208 172 154 149 153 160 167 169 168 165
196 204 216 205 199 165 168 158 150 153 184 204 212 213 210 232 207 242 161 203 136 167 190 202 210 176 190 186 175 172 176 178 177 172 212 160 255 181 199 206 181 195 202 211 171 284 131 271 212 317 55 7 359 43 7 338 57 127 181 326 140 240 260 224 94 249 239 239 270 234 201 221 188 215 134 208 190 186 187 194 163 163 170 171 168 169 166 155
198 196 225 210 155 167 167 161 163 164 179 214 203 219 221 233 203 239 17 320 188 170 204 208 206 198 195 192 168 176 167 194 158 193 160 195 223 182 191 178 194 193 195 188 219 227 67 192 308 314 20 135 48 138 191 214 282 76 341 345 68 95 218 152 197 238 126 261 257 262 157 252 193 211 180 198 198 177 171 186 193 180 175 172 170 172 171 168
188 185 244 153 160 160 157 167 165 168 189 205 194 227 150 219 209 251 273 289 192 195 209 208 209 215 201 216 161 169 194 191 165 195 196 174 205 186 180 184 171 188 180 189 207 136 241 122 251 189 313 113 212 190 204 177 190 215 119 279 271 185 264 93 305 193 188 226 229 275 274 271 242 351 187 194 183 176 177 186 187 180 176 176 173 172 172 171
200 217 267 149 156 149 148 162 179 174 194 220 234 244 208 210 195 217 189 110 346 40 15 250 204 210 184 196 212 162 174 192 187 189 192 197 182 249 200 177 164 171 135 162 205 169 166 157 208 118 256 216 240 195 211 206 207 197 184 199 189 163 161 191 251 131 214 170 240 200 259 248 300 14 346 169 177 175 186 175 177 175 172 174 170 173 172 172
195 221 227 157 143 146 153 179 189 182 187 198 205 197 201 212 284 206 204 82 29 90 23 242 21 36 206 197 188 153 172 190 193 190 206 201 202 203 304 321 174 145 149 179 196 194 165 133 133 202 211 208 217 141 85 124 90 235 204 225 181 212 176 198 232 244 24 254 84 212 336 252 254 336 345 16 64 150 159 157 168 170 171 170 169 169 173 174
209 219 59 154 155 155 171 193 175 182 204 224 218 356 226 225 224 161 201 206 233 171 212 167 226 150 260 79 193 162 164 197 187 204 180 204 206 32 326 339 141 159 136 1 59 300 76 131 175 250 46 10 331 132 75 26 83 305 282 258 183 208 198 213 219 166 183 209 202 266 257 275 293 33 350 33 32 59 119 149 153 161 159 162 160 163 167 166
208 148 240 176 164 161 177 186 183 189 213 174 197 229 204 218 199 196 202 190 206 177 209 196 25 271 53 12 17 167 164 193 219 193 223 190 187 343 345 2 128 174 163 206 165 180 131 235 157 195 253 108 334 9 345 13 127 215 208 206 212 231 204 215 62 351 282 207 171 153 248 241 268 16 352 347 68 81 96 121 144 152 158 162 161 162 160 156
76 337 274 302 211 175 189 177 184 188 195 189 187 208 206 212 215 213 190 201 202 217 181 229 218 125 132 71 23 19 300 219 73 278 88 314 117 322 359 13 357 83 53 6 37 177 164 155 153 207 220 227 218 206 209 206 215 207 231 186 202 207 190 126 222 207 235 220 155 221 236 49 254 159 157 104 123 108 100 106 120 149 158 159 158 160 161 162
180 206 181 280 169 350 288 211 179 176 185 186 198 213 206 215 222 251 184 212 190 195 224 113 351 199 167 116 172 224 232 8 158 210 152 184 138 36 315 355 34 65 67 44 23 96 158 158 189 202 217 230 238 164 283 115 90 193 209 195 209 205 205 199 214 201 225 196 192 227 213 170 204 173 180 176 165 155 144 141 129 130 129 134 144 152 153 154
175 225 152 200 2 257 241 297 187 172 193 178 199 179 200 211 183 312 194 201 193 175 132 148 164 171 212 201 221 229 208 201 54 101 215 142 44 104 41 63 68 60 57 91 355 85 92 197 216 218 223 238 162 159 304 163 199 215 203 208 207 199 198 197 196 222 173 105 244 200 166 185 209 185 185 179 164 160 168 162 142 138 151 151 153 136 128 135
212 216 185 184 175 196 206 247 201 196 198 175 205 172 199 199 186 198 177 234 121 164 158 316 235 213 198 198 204 214 187 209 128 217 118 61 108 100 35 13 109 50 74 97 324 145 157 214 223 204 238 210 65 133 345 30 183 235 233 218 206 204 197 206 219 221 149 202 231 149 183 195 211 195 181 178 172 181 176 176 168 162 149 139 145 152 164 167
160 7 238 299 212 198 211 196 189 194 192 180 206 194 194 200 205 201 167 155 170 196 192 209 213 212 203 191 174 205 172 171 242 221 158 179 166 135 145 41 279 122 147 121 139 235 107 238 186 195 229 191 275 326 354 192 309 286 268 244 216 204 207 210 221 219 204 230 153 178 212 218 154 191 177 181 182 158 148 137 136 133 146 143 151 163 176 178
204 170 215 359 2 240 194 149 136 195 212 185 195 201 200 201 207 180 153 167 186 213 189 221 228 197 199 191 182 200 204 206 213 199 186 134 167 185 197 184 145 21 146 174 156 294 149 246 149 141 217 233 260 350 27 95 205 260 264 246 251 243 219 223 234 226 225 265 238 103 321 266 311 97 113 82 104 106 93 97 112 122 140 155 164 176 179 187
341 349 306 146 199 203 156 179 180 192 210 197 206 204 210 208 213 191 199 186 194 182 184 210 221 180 190 193 202 220 218 207 217 199 166 165 199 196 162 232 138 148 162 137 148 178 159 235 71 161 213 227 241 177 143 40 34 253 264 247 208 184 183 213 217 206 201 222 223 109 241 226 72 63 62 72 85 103 124 131 138 153 170 169 177 184 185 189
62 241 266 192 204 171 187 174 189 177 216 198 200 203 199 211 208 176 200 220 222 206 197 213 202 128 198 197 213 221 213 180 200 128 172 163 75 107 155 153 168 169 171 189 155 166 188 158 169 180 213 216 153 142 144 91 354 297 251 230 182 196 214 208 179 184 209 172 158 209 229 123 161 94 76 52 123 174 184 183 194 182 174 178 187 190 189 187